Location: Borojevi?i
(45.0486°N, 16.2297°E)
Time: 20:51:54
(UTC+00:00)

BREEZE-M DEB (TANK) - Pass Details

Date: 08 August 2020
Orbit: 433 x 13232 km, 46.0° (Epoch: 21 September)

Event Time Altitude Azimuth Distance (km) Brightness Sun altitude
Rises 21:05:56 0° 264° (W) 10,369 9.6 -23.8°
Reaches altitude 10° 21:16:04 10° 267° (W) 7,143 8.7 -24.7°
Maximum altitude 21:32:19 84° 357° (N) 1,248 4.5 -25.9°
Enters shadow 21:35:03 31° 83° (E) 1,528 4.8 -26.1°
